OE3TEC-15 Weather Reports


time (UTC)temp
C
wind
direction
speed
KPH
gust
KPH
rain 1hr
cm
rain 24hr
cm
rain mn
cm
humidity
%
barometer
mb
20260505202745 16 136 1.6 6.4 0.00 0.00 0.00 57 1005.5
20260505201738 16 84 4.8 9.7 0.00 0.00 0.00 56 1005.1
20260505200730 17 86 4.8 9.7 0.00 0.00 0.00 55 1005.2
20260505195723 17 81 4.8 11.3 0.00 0.00 0.00 55 1005.1
20260505194715 17 74 4.8 11.3 0.00 0.00 0.00 54 1005.2
20260505193708 17 83 6.4 12.9 0.00 0.00 0.00 53 1005.0
20260505192700 17 80 6.4 12.9 0.00 0.00 0.00 52 1005.1
20260505191654 18 88 6.4 12.9 0.00 0.00 0.00 51 1005.1
20260505190645 18 92 4.8 11.3 0.00 0.00 0.00 50 1004.9
20260505185643 18 89 4.8 12.9 0.00 0.00 0.00 49 1004.9
20260505184632 19 96 4.8 9.7 0.00 0.00 0.00 49 1004.8
20260505183632 20 97 4.8 11.3 0.00 0.00 0.00 47 1004.7
20260505182627 20 90 4.8 14.5 0.00 0.00 0.00 46 1004.9
20260505181620 20 105 4.8 11.3 0.00 0.00 0.00 46 1004.9
20260505180611 21 98 4.8 16.1 0.00 0.00 0.00 45 1004.9
20260505175605 21 107 4.8 14.5 0.00 0.00 0.00 44 1004.9
20260505174604 22 91 6.4 14.5 0.00 0.00 0.00 43 1004.8
20260505173601 22 92 6.4 16.1 0.00 0.00 0.00 42 1004.9
20260505172553 22 94 6.4 16.1 0.00 0.00 0.00 41 1004.6
20260505171546 23 98 6.4 17.7 0.00 0.00 0.00 41 1004.9
20260505170537 23 102 6.4 12.9 0.00 0.00 0.00 40 1005.0
20260505165531 23 115 6.4 20.9 0.00 0.00 0.00 39 1004.9
20260505164523 24 104 8.0 20.9 0.00 0.00 0.00 38 1005.0
20260505163516 24 111 6.4 22.5 0.00 0.00 0.00 38 1004.7
20260505162509 25 122 4.8 17.7 0.00 0.00 0.00 36 1004.7
20260505161501 25 149 6.4 17.7 0.00 0.00 0.00 34 1004.9
20260505160453 26 110 8.0 22.5 0.00 0.00 0.00 33 1004.9
20260505152425 26 106 8.0 24.1 0.00 0.00 0.00 33 1005.0
20260505151418 27 108 8.0 17.7 0.00 0.00 0.00 30 1004.8
20260505150410 27 113 6.4 17.7 0.00 0.00 0.00 29 1005.0
20260505140326 28 91 8.0 27.4 0.00 0.00 0.00 26 1005.8
20260505130252 27 104 6.4 17.7 0.00 0.00 0.00 27 1006.6
20260505124238 28 112 4.8 17.7 0.00 0.00 0.00 28 1006.9
20260505123230 27 131 3.2 12.9 0.00 0.00 0.00 30 1007.0
20260505122223 26 91 6.4 16.1 0.00 0.00 0.00 34 1007.3
20260505121217 26 113 6.4 20.9 0.00 0.00 0.00 35 1007.5
20260505120210 26 126 4.8 16.1 0.00 0.00 0.00 36 1007.7
20260505115202 25 129 6.4 20.9 0.00 0.00 0.00 37 1008.0
20260505114155 25 118 6.4 17.7 0.00 0.00 0.00 36 1008.0
20260505113148 25 104 8.0 20.9 0.00 0.00 0.00 38 1008.2
20260505112140 25 100 6.4 17.7 0.00 0.00 0.00 37 1008.3
20260505111133 23 90 8.0 17.7 0.00 0.00 0.00 38 1008.4
20260505110126 23 98 6.4 17.7 0.00 0.00 0.00 36 1008.7
20260505102056 22 99 8.0 17.7 0.00 0.00 0.00 41 1009.1
20260505101050 23 106 4.8 17.7 0.00 0.00 0.00 40 1009.3
20260505100043 22 98 6.4 16.1 0.00 0.00 0.00 43 1009.4
20260505095036 23 112 4.8 14.5 0.00 0.00 0.00 42 1009.6
20260505094028 22 101 4.8 16.1 0.00 0.00 0.00 44 1009.6
20260505093022 21 99 6.4 14.5 0.00 0.00 0.00 46 1009.8
20260505092014 22 101 4.8 14.5 0.00 0.00 0.00 44 1009.8
20260505091006 21 97 4.8 16.1 0.00 0.00 0.00 45 1009.8
20260505085958 20 111 4.8 11.3 0.00 0.00 0.00 47 1010.1
20260505084951 19 106 4.8 14.5 0.00 0.00 0.00 51 1010.1
20260505083945 20 117 4.8 12.9 0.00 0.00 0.00 48 1010.0
20260505082939 21 121 3.2 11.3 0.00 0.00 0.00 48 1010.1
20260505081931 20 123 3.2 11.3 0.00 0.00 0.00 51 1010.1
20260505080923 19 101 4.8 11.3 0.00 0.00 0.00 51 1010.2
20260505075916 19 116 3.2 9.7 0.00 0.00 0.00 52 1010.4
20260505074916 19 128 3.2 11.3 0.00 0.00 0.00 52 1010.3
20260505073911 18 99 3.2 11.3 0.00 0.00 0.00 52 1010.4
20260505072904 17 100 4.8 9.7 0.00 0.00 0.00 54 1010.3
20260505071858 17 108 3.2 9.7 0.00 0.00 0.00 57 1010.4
20260505070849 16 126 3.2 6.4 0.00 0.00 0.00 57 1010.3
20260505065842 16 107 3.2 6.4 0.00 0.00 0.00 58 1010.5
20260505064834 16 123 1.6 6.4 0.00 0.00 0.00 58 1010.5
20260505063828 17 108 3.2 6.4 0.00 0.00 0.00 55 1010.5
20260505062821 16 106 1.6 6.4 0.00 0.00 0.00 56 1010.4
20260505061813 16 105 3.2 6.4 0.00 0.00 0.00 58 1010.5
20260505060812 15 144 1.6 4.8 0.00 0.00 0.00 59 1010.5
20260505055807 15 159 1.6 4.8 0.00 0.00 0.00 61 1010.6
20260505054800 14 177 1.6 3.2 0.00 0.00 0.00 63 1010.6
20260505053754 13 190 1.6 3.2 0.00 0.00 0.00 65 1010.7
20260505052747 13 204 0.0 0.0 0.00 0.00 0.00 65 1010.6
20260505051739 12 189 0.0 1.6 0.00 0.00 0.00 69 1010.6
20260505050732 11 186 0.0 1.6 0.00 0.00 0.00 75 1010.4
20260505041655 7 203 0.0 0.0 0.00 0.00 0.00 85 1010.3
20260505040648 7 201 0.0 0.0 0.00 0.00 0.00 85 1010.4
20260505035642 7 204 0.0 0.0 0.00 0.00 0.00 85 1010.2
20260505034635 7 209 0.0 0.0 0.00 0.00 0.00 86 1010.4
20260505033627 6 198 0.0 0.0 0.00 0.00 0.00 86 1010.3
20260505032620 7 209 0.0 1.6 0.00 0.00 0.00 84 1010.3
20260505031613 6 213 0.0 1.6 0.00 0.00 0.00 85 1010.3
20260505030605 7 210 0.0 1.6 0.00 0.00 0.00 84 1010.2
20260505025558 7 206 0.0 1.6 0.00 0.00 0.00 83 1010.4
20260505024551 7 201 0.0 3.2 0.00 0.00 0.00 83 1010.3
20260505023543 7 198 0.0 1.6 0.00 0.00 0.00 83 1010.3
20260505022536 7 205 0.0 1.6 0.00 0.00 0.00 82 1010.6
20260505021530 7 205 0.0 0.0 0.00 0.00 0.00 81 1010.7
20260505020523 8 211 0.0 0.0 0.00 0.00 0.00 81 1010.7
20260505015515 8 205 0.0 1.6 0.00 0.00 0.00 81 1010.8
20260505014508 8 213 0.0 3.2 0.00 0.00 0.00 79 1010.8
20260505013501 8 213 1.6 3.2 0.00 0.00 0.00 78 1010.7
20260505012453 9 209 0.0 3.2 0.00 0.00 0.00 76 1010.8
20260505011446 10 200 0.0 1.6 0.00 0.00 0.00 74 1010.8
20260505010439 10 204 0.0 0.0 0.00 0.00 0.00 72 1010.9
20260505005431 11 209 0.0 1.6 0.00 0.00 0.00 69 1011.0
20260505004424 12 205 0.0 1.6 0.00 0.00 0.00 66 1010.8
20260505003418 12 189 0.0 1.6 0.00 0.00 0.00 63 1010.9
20260505002418 13 193 0.0 1.6 0.00 0.00 0.00 61 1010.8
20260505001413 14 209 0.0 1.6 0.00 0.00 0.00 58 1010.8
20260505000406 14 208 0.0 3.2 0.00 0.00 0.00 57 1010.8
20260504235357 14 198 0.0 3.2 0.00 0.00 0.00 57 1011.1
20260504233343 15 177 0.0 3.2 0.00 0.00 0.00 54 1011.2
20260504232336 15 187 0.0 1.6 0.00 0.00 0.00 55 1011.2
20260504231327 14 214 1.6 4.8 0.00 0.00 0.00 56 1011.3
20260504230322 13 214 0.0 3.2 0.00 0.00 0.00 58 1011.3
20260504225315 14 209 0.0 1.6 0.00 0.00 0.00 57 1011.3
20260504224307 14 208 0.0 1.6 0.00 0.00 0.00 57 1011.4
20260504223301 15 204 0.0 1.6 0.00 0.00 0.00 56 1011.4
20260504222253 15 209 0.0 3.2 0.00 0.00 0.00 53 1011.4
20260504221245 16 208 0.0 3.2 0.00 0.00 0.00 51 1011.4
20260504220237 16 212 1.6 4.8 0.00 0.00 0.00 49 1011.3
20260504215230 16 198 1.6 6.4 0.00 0.00 0.00 48 1011.3
20260504214222 17 164 1.6 6.4 0.00 0.00 0.00 47 1011.5
20260504213216 17 141 1.6 9.7 0.00 0.00 0.00 46 1011.2
20260504212209 17 110 3.2 9.7 0.00 0.00 0.00 46 1011.5
20260504211200 17 91 3.2 6.4 0.00 0.00 0.00 45 1011.6
20260504210154 17 82 3.2 9.7 0.00 0.00 0.00 45 1011.6
20260504205148 17 88 4.8 11.3 0.00 0.00 0.00 44 1011.6
20260504204140 18 100 4.8 11.3 0.00 0.00 0.00 43 1011.5